Location: Gorze? G�rny
(49.8500°N, 19.5000°E)
Time: 05:13:29
(UTC+00:00)

BREEZE-M DEB (TANK) - Pass Details

Date: 13 May 2021
Orbit: 333 x 14763 km, 49.5° (Epoch: 20 June)

Event Time Altitude Azimuth Distance (km) Brightness Sun altitude
Exits shadow 23:27:45 36° 159° (SSE) 1,286 4.2 -20.7°
Maximum altitude 23:28:40 39° 133° (SE) 1,371 4.5 -20.6°
Drops below altitude 10° 23:38:52 10° 70° (ENE) 5,339 8.3 -20.2°
Sets 23:46:56 0° 66° (ENE) 8,417 9.4 -19.9°
